FDX9008 LFPG-VOBL

Flight info

Callsign FDX9008
Flight time N/A
Altitude 31000
Route BUBLI DCT LUVAL DCT MIRGU DCT BEGAR DCT TRA DCT GAMSA DCT GEDSO DCT PODET DCT ZINPE DCT NASSY DCT OKLOP DCT ETIDA DCT UDROS UN743 GAKSU UT310 ATNOP/N0489F330 UT310 SIN UN644 KARDE UL851 TBN UR317 REBLO DCT MATAL T916 SUBUT T923 ERLEV M11 RODAR A909 TUNEK B143 KRS A240 INRAK B449 DOLOS B475 NINOP B801 RANAH L750 BIROS/N0491F350 L750 ZB G202 RK P628 NIKOT/N0501F340 A474 PRA/N0496F350 L518 HIA Q21 LURGI/N0492F360 Q21 TELUV TELUV7F
Aircraft B77L/H-SDE1E2E3FGHIJ2J3J4J5M1RWXY/LB1D1

Departure

Time 2026-05-05 22:15
Airport Charles de Gaulle International Airport (LFPG)

Arrival

Time N/A
Airport Kempegowda International Airport Bengaluru (VOBL)
Time Latitude Longitude Altitude Speed Heading
2026-05-05 21:28 49.01152 2.50557 355 ft 0 kts 84°
2026-05-05 22:02 49.01151 2.50544 361 ft 4 kts 86°
2026-05-05 22:02 49.01149 2.50503 361 ft 4 kts 87°
2026-05-05 22:03 49.01149 2.50463 358 ft 4 kts 86°
2026-05-05 22:03 49.01145 2.50435 357 ft 4 kts 50°
2026-05-05 22:03 49.01129 2.50416 355 ft 4 kts
2026-05-05 22:03 49.01103 2.50415 360 ft 4 kts 355°
2026-05-05 22:04 49.01098 2.50416 361 ft 3 kts 355°
2026-05-05 22:08 49.01135 2.50411 362 ft 7 kts 355°
2026-05-05 22:08 49.01184 2.50405 381 ft 7 kts 355°
2026-05-05 22:08 49.01233 2.50399 361 ft 7 kts 355°
2026-05-05 22:08 49.01282 2.50392 360 ft 7 kts 355°
2026-05-05 22:09 49.01331 2.50386 357 ft 7 kts 355°
2026-05-05 22:09 49.01380 2.50381 362 ft 7 kts
2026-05-05 22:09 49.01422 2.50415 362 ft 7 kts 54°
2026-05-05 22:09 49.01432 2.50488 362 ft 7 kts 82°
2026-05-05 22:10 49.01437 2.50562 355 ft 7 kts 85°
2026-05-05 22:10 49.01441 2.50637 361 ft 7 kts 85°
2026-05-05 22:10 49.01445 2.50717 355 ft 8 kts 85°
2026-05-05 22:10 49.01450 2.50815 360 ft 10 kts 85°
2026-05-05 22:11 49.01456 2.50934 362 ft 12 kts 85°
2026-05-05 22:11 49.01464 2.51074 357 ft 14 kts 85°
2026-05-05 22:11 49.01472 2.51202 361 ft 9 kts 81°
2026-05-05 22:11 49.01503 2.51281 361 ft 9 kts 29°
2026-05-05 22:12 49.01566 2.51290 361 ft 9 kts 356°
2026-05-05 22:12 49.01629 2.51284 356 ft 9 kts 356°
2026-05-05 22:12 49.01693 2.51278 361 ft 9 kts 356°
2026-05-05 22:12 49.01757 2.51270 359 ft 9 kts 355°
2026-05-05 22:13 49.01821 2.51263 359 ft 9 kts 355°
2026-05-05 22:13 49.01885 2.51256 365 ft 9 kts 357°
2026-05-05 22:13 49.01948 2.51257 361 ft 9 kts
2026-05-05 22:13 49.02004 2.51303 367 ft 9 kts 40°
2026-05-05 22:14 49.02047 2.51374 365 ft 9 kts 53°
2026-05-05 22:14 49.02072 2.51475 364 ft 16 kts 82°
2026-05-05 22:14 49.02091 2.51799 364 ft 53 kts 85°
2026-05-05 22:14 49.02139 2.52695 360 ft 115 kts 85°
2026-05-05 22:15 49.02222 2.54205 365 ft 168 kts 85°
2026-05-05 22:15 49.02310 2.56163 478 ft 192 kts 84°
2026-05-05 22:15 49.02382 2.58208 821 ft 198 kts 82°
2026-05-05 22:15 49.02510 2.60297 1357 ft 194 kts 81°
2026-05-05 22:16 49.02627 2.62310 2016 ft 188 kts 80°
2026-05-05 22:16 49.02746 2.64378 2217 ft 204 kts 81°
2026-05-05 22:16 49.02873 2.66615 2353 ft 222 kts 82°
2026-05-05 22:16 49.03005 2.69029 2531 ft 239 kts 82°
2026-05-05 22:17 49.03144 2.71626 2929 ft 249 kts 82°
2026-05-05 22:17 49.03275 2.74283 3506 ft 254 kts 84°
2026-05-05 22:17 49.03405 2.76998 4002 ft 259 kts 84°
2026-05-05 22:17 49.03537 2.79751 4635 ft 259 kts 84°
2026-05-05 22:18 49.03669 2.82488 5311 ft 259 kts 84°
2026-05-05 22:18 49.03798 2.85219 5941 ft 259 kts 85°
2026-05-05 22:18 49.03929 2.87973 6476 ft 261 kts 85°
2026-05-05 22:18 49.04061 2.90757 6982 ft 265 kts 85°
2026-05-05 22:19 49.04176 2.93588 7431 ft 268 kts 92°
2026-05-05 22:19 49.03688 2.96314 7768 ft 271 kts 119°
2026-05-05 22:19 49.02719 2.98833 8122 ft 279 kts 121°
2026-05-05 22:19 49.01726 3.01397 8617 ft 283 kts 121°
2026-05-05 22:20 49.00723 3.03991 9174 ft 285 kts 121°
2026-05-05 22:20 48.99712 3.06612 9708 ft 288 kts 121°
2026-05-05 22:20 48.98692 3.09260 10140 ft 294 kts 121°
2026-05-05 22:20 48.97642 3.11993 10277 ft 312 kts 121°
2026-05-05 22:21 48.96513 3.14931 10426 ft 330 kts 121°
2026-05-05 22:21 48.95322 3.18037 10584 ft 349 kts 121°
2026-05-05 22:21 48.94068 3.21309 10791 ft 365 kts 121°
2026-05-05 22:21 48.92773 3.24687 11253 ft 375 kts 121°
2026-05-05 22:22 48.91449 3.28140 11825 ft 381 kts 121°
2026-05-05 22:22 48.90108 3.31632 12604 ft 383 kts 121°
2026-05-05 22:22 48.88759 3.35140 13346 ft 386 kts 121°
2026-05-05 22:22 48.87398 3.38677 13977 ft 391 kts 121°
2026-05-05 22:23 48.86017 3.42259 14622 ft 394 kts 121°
2026-05-05 22:23 48.84626 3.45865 15253 ft 397 kts 122°
2026-05-05 22:23 48.83224 3.49492 15899 ft 400 kts 122°
2026-05-05 22:23 48.81819 3.53158 16494 ft 401 kts 119°
2026-05-05 22:24 48.80859 3.57178 16895 ft 411 kts 99°
2026-05-05 22:24 48.80620 3.61511 17341 ft 415 kts 95°
2026-05-05 22:24 48.80403 3.65896 17897 ft 419 kts 96°
2026-05-05 22:24 48.80154 3.70311 18503 ft 421 kts 96°
2026-05-05 22:25 48.79883 3.74733 19083 ft 422 kts 97°
2026-05-05 22:25 48.79599 3.79175 19633 ft 424 kts 97°
2026-05-05 22:25 48.79306 3.83648 20146 ft 427 kts 97°
2026-05-05 22:25 48.79008 3.88145 20651 ft 431 kts 97°
2026-05-05 22:26 48.78706 3.92680 21170 ft 433 kts 97°
2026-05-05 22:26 48.78402 3.97231 21689 ft 436 kts 97°
2026-05-05 22:26 48.78094 4.01823 22200 ft 439 kts 97°
2026-05-05 22:26 48.77783 4.06441 22701 ft 442 kts 97°
2026-05-05 22:27 48.77466 4.11087 23200 ft 443 kts 98°
2026-05-05 22:27 48.76815 4.15577 23491 ft 444 kts 114°
2026-05-05 22:27 48.75236 4.19578 23796 ft 441 kts 129°
2026-05-05 22:27 48.73368 4.23282 24105 ft 446 kts 128°
2026-05-05 22:28 48.71525 4.27085 24506 ft 448 kts 127°
2026-05-05 22:28 48.69705 4.30922 24990 ft 449 kts 127°
2026-05-05 22:28 48.67892 4.34780 25431 ft 451 kts 127°
2026-05-05 22:28 48.66068 4.38666 25834 ft 453 kts 127°
2026-05-05 22:29 48.64243 4.42548 26229 ft 456 kts 127°
2026-05-05 22:29 48.62394 4.46470 26607 ft 458 kts 127°
2026-05-05 22:29 48.60538 4.50400 26999 ft 460 kts 127°
2026-05-05 22:29 48.58669 4.54346 27399 ft 463 kts 127°
2026-05-05 22:30 48.56789 4.58309 27762 ft 465 kts 127°
2026-05-05 22:30 48.54903 4.62277 28143 ft 467 kts 127°
2026-05-05 22:30 48.53003 4.66271 28486 ft 469 kts 127°
2026-05-05 22:30 48.51091 4.70282 28810 ft 472 kts 128°
2026-05-05 22:31 48.49168 4.74312 29150 ft 474 kts 128°
2026-05-05 22:31 48.47240 4.78346 29456 ft 476 kts 128°
2026-05-05 22:31 48.45303 4.82392 29772 ft 477 kts 128°
2026-05-05 22:31 48.43362 4.86443 30141 ft 476 kts 128°
2026-05-05 22:32 48.41449 4.90428 30487 ft 475 kts 128°
2026-05-05 22:32 48.39512 4.94460 30756 ft 476 kts 128°
2026-05-05 22:32 48.37562 4.98508 30784 ft 478 kts 128°
2026-05-05 22:33 48.33666 5.06586 30840 ft 477 kts 129°
2026-05-05 22:33 48.30117 5.15031 30836 ft 480 kts 118°
2026-05-05 22:34 48.27714 5.24446 30840 ft 486 kts 108°
2026-05-05 22:34 48.26029 5.34292 30843 ft 488 kts 107°
2026-05-05 22:35 48.24357 5.44170 30862 ft 489 kts 108°
2026-05-05 22:35 48.22639 5.54052 30847 ft 489 kts 108°
2026-05-05 22:36 48.20904 5.63862 30846 ft 490 kts 109°
2026-05-05 22:36 48.19141 5.73749 30848 ft 491 kts 109°
2026-05-05 22:37 48.17368 5.83646 30840 ft 492 kts 109°
2026-05-05 22:37 48.15585 5.93558 30846 ft 493 kts 109°
2026-05-05 22:38 48.13788 6.03488 30853 ft 495 kts 109°
2026-05-05 22:38 48.11978 6.13444 30846 ft 496 kts 110°
2026-05-05 22:39 48.10159 6.23390 30854 ft 496 kts 110°
2026-05-05 22:39 48.08324 6.33368 30859 ft 497 kts 110°
2026-05-05 22:40 48.06492 6.43280 30860 ft 498 kts 110°
2026-05-05 22:40 48.04624 6.53333 30853 ft 499 kts 110°
2026-05-05 22:41 48.02772 6.63254 30876 ft 500 kts 110°
2026-05-05 22:41 48.01162 6.73393 30869 ft 503 kts 104°
2026-05-05 22:42 47.99966 6.83707 30865 ft 504 kts 104°
2026-05-05 22:42 47.98762 6.94029 30864 ft 504 kts 104°
2026-05-05 22:43 47.97730 7.02594 30851 ft 504 kts 104°
2026-05-05 22:43 47.96262 7.14578 30850 ft 505 kts 104°
2026-05-05 22:44 47.95198 7.23195 30855 ft 505 kts 104°
2026-05-05 22:44 47.93917 7.33505 30855 ft 505 kts 104°
2026-05-05 22:45 47.92627 7.43820 30864 ft 506 kts 104°
2026-05-05 22:45 47.91335 7.54081 30854 ft 507 kts 105°
2026-05-05 22:46 47.89457 7.64120 30865 ft 500 kts 115°
2026-05-05 22:46 47.86949 7.73813 30872 ft 502 kts 115°
2026-05-05 22:47 47.84440 7.83524 30887 ft 503 kts 115°
2026-05-05 22:47 47.81963 7.93251 30881 ft 501 kts 115°
2026-05-05 22:48 47.79488 8.02974 30892 ft 503 kts 115°
2026-05-05 22:48 47.77005 8.12691 30894 ft 502 kts 115°
2026-05-05 22:49 47.74524 8.22342 30891 ft 502 kts 115°
2026-05-05 22:49 47.72027 8.32021 30898 ft 502 kts 115°
2026-05-05 22:50 47.69515 8.41718 30900 ft 503 kts 115°
2026-05-05 22:50 47.67117 8.51487 30899 ft 505 kts 112°
2026-05-05 22:51 47.64926 8.61384 30903 ft 504 kts 111°
2026-05-05 22:51 47.62731 8.71256 30915 ft 503 kts 112°
2026-05-05 22:52 47.60507 8.81027 30906 ft 503 kts 112°
2026-05-05 22:52 47.58246 8.90841 30904 ft 503 kts 112°
2026-05-05 22:53 47.55978 9.00637 30892 ft 503 kts 112°
2026-05-05 22:53 47.53702 9.10436 30902 ft 503 kts 112°
2026-05-05 22:54 47.51418 9.20229 30904 ft 504 kts 112°
2026-05-05 22:54 47.49128 9.30006 30896 ft 503 kts 112°
2026-05-05 22:55 47.46830 9.39769 30909 ft 502 kts 112°
2026-05-05 22:55 47.44532 9.49495 30902 ft 501 kts 112°
2026-05-05 22:56 47.42227 9.59211 30908 ft 500 kts 112°
2026-05-05 22:56 47.40173 9.69038 30901 ft 503 kts 104°
2026-05-05 22:57 47.38801 9.79162 30904 ft 503 kts 104°
2026-05-05 22:57 47.37451 9.89289 30893 ft 502 kts 104°
2026-05-05 22:58 47.36075 9.99306 30892 ft 501 kts 104°
2026-05-05 22:58 47.34661 10.09363 30902 ft 501 kts 104°
2026-05-05 22:59 47.33252 10.19296 30906 ft 501 kts 104°
2026-05-05 22:59 47.31872 10.28975 30905 ft 499 kts 104°
2026-05-05 23:00 47.29712 10.44001 30901 ft 500 kts 104°
2026-05-05 23:00 47.28261 10.54021 30906 ft 499 kts 104°
2026-05-05 23:01 47.26807 10.64002 30901 ft 498 kts 104°
2026-05-05 23:01 47.25354 10.73904 30905 ft 498 kts 104°
2026-05-05 23:02 47.23882 10.83874 30910 ft 499 kts 104°
2026-05-05 23:02 47.22400 10.93847 30911 ft 498 kts 104°
2026-05-05 23:03 47.20908 11.03816 30917 ft 498 kts 104°
2026-05-05 23:03 47.19411 11.13776 30911 ft 498 kts 104°
2026-05-05 23:04 47.17905 11.23711 30920 ft 498 kts 104°
2026-05-05 23:04 47.16397 11.33602 30918 ft 498 kts 104°
2026-05-05 23:05 47.14876 11.43519 30918 ft 498 kts 104°
2026-05-05 23:05 47.13347 11.53432 30924 ft 498 kts 104°
2026-05-05 23:06 47.11808 11.63344 30929 ft 498 kts 104°
2026-05-05 23:06 47.10258 11.73277 30940 ft 498 kts 105°
2026-05-05 23:07 47.08699 11.83211 30940 ft 499 kts 105°
2026-05-05 23:07 47.06844 11.93004 30946 ft 498 kts 110°
2026-05-05 23:08 47.04657 12.02660 30949 ft 497 kts 111°
2026-05-05 23:08 47.02459 12.12279 30968 ft 498 kts 110°
2026-05-05 23:09 47.00291 12.21841 30980 ft 497 kts 110°
2026-05-05 23:09 46.98118 12.31449 30990 ft 497 kts 110°
2026-05-05 23:10 46.95936 12.41072 31101 ft 503 kts 114°
2026-05-05 23:10 46.93682 12.50925 31045 ft 516 kts 114°
2026-05-05 23:11 46.91388 12.60927 30960 ft 520 kts 113°
2026-05-05 23:11 46.89071 12.70992 30969 ft 523 kts 114°
2026-05-05 23:12 46.86747 12.81049 30964 ft 520 kts 114°
2026-05-05 23:12 46.84428 12.91031 30964 ft 519 kts 114°
2026-05-05 23:13 46.82112 13.00943 30953 ft 519 kts 114°
2026-05-05 23:13 46.79769 13.10921 30978 ft 520 kts 114°
2026-05-05 23:14 46.77417 13.20901 30975 ft 519 kts 114°
2026-05-05 23:14 46.75063 13.30841 30970 ft 518 kts 114°
2026-05-05 23:15 46.72702 13.40770 30977 ft 518 kts 114°
2026-05-05 23:15 46.70346 13.50635 30972 ft 517 kts 113°
2026-05-05 23:16 46.67972 13.60529 30935 ft 515 kts 113°
2026-05-05 23:16 46.65594 13.70378 30971 ft 517 kts 113°
2026-05-05 23:17 46.63202 13.80255 30947 ft 517 kts 113°
2026-05-05 23:17 46.60802 13.90127 30946 ft 517 kts 113°
2026-05-05 23:18 46.58407 13.99926 30942 ft 518 kts 113°
2026-05-05 23:18 46.55983 14.09807 30946 ft 518 kts 113°
2026-05-05 23:19 46.53549 14.19683 30932 ft 520 kts 113°
2026-05-05 23:19 46.51106 14.29556 30925 ft 519 kts 113°
2026-05-05 23:20 46.48654 14.39415 30940 ft 520 kts 113°
2026-05-05 23:20 46.46186 14.49300 30928 ft 522 kts 113°
2026-05-05 23:21 46.43698 14.59222 30996 ft 524 kts 113°
2026-05-05 23:21 46.41195 14.69154 30966 ft 523 kts 113°
2026-05-05 23:22 46.38696 14.79037 30966 ft 523 kts 113°
2026-05-05 23:22 46.36180 14.88936 30980 ft 524 kts 113°
2026-05-05 23:23 46.33666 14.98790 30960 ft 525 kts 113°
2026-05-05 23:23 46.31126 15.08701 30945 ft 526 kts 112°
2026-05-05 23:24 46.28574 15.18617 30953 ft 526 kts 112°
2026-05-05 23:24 46.26015 15.28520 30949 ft 526 kts 112°
2026-05-05 23:25 46.23448 15.38412 30944 ft 526 kts 112°
2026-05-05 23:25 46.20872 15.48297 30931 ft 526 kts 112°
2026-05-05 23:26 46.18287 15.58177 30947 ft 526 kts 112°
2026-05-05 23:26 46.15680 15.68037 30947 ft 525 kts 113°
2026-05-05 23:27 46.13022 15.77823 30947 ft 524 kts 113°
2026-05-05 23:27 46.10368 15.87535 30945 ft 525 kts 113°
2026-05-05 23:28 46.07692 15.97319 30941 ft 524 kts 113°
2026-05-05 23:28 46.05017 16.07081 30945 ft 524 kts 113°
2026-05-05 23:29 46.02334 16.16834 30949 ft 524 kts 113°
2026-05-05 23:29 45.99645 16.26567 30949 ft 524 kts 113°
2026-05-05 23:30 45.97402 16.34654 30951 ft 524 kts 113°
2026-05-05 23:30 45.94699 16.44366 30946 ft 522 kts 113°
2026-05-05 23:31 45.91992 16.54054 30967 ft 522 kts 113°
2026-05-05 23:31 45.89277 16.63727 30947 ft 522 kts 113°
2026-05-05 23:32 45.86556 16.73389 30952 ft 522 kts 113°
2026-05-05 23:32 45.83830 16.83026 30969 ft 521 kts 113°
2026-05-05 23:33 45.81101 16.92642 30964 ft 521 kts 113°
2026-05-05 23:33 45.78361 17.02255 30967 ft 521 kts 113°
2026-05-05 23:34 45.75617 17.11851 30968 ft 521 kts 113°
2026-05-05 23:34 45.72790 17.21404 30968 ft 520 kts 115°
2026-05-05 23:35 45.69818 17.30840 30973 ft 520 kts 115°
2026-05-05 23:35 45.66835 17.40259 30969 ft 519 kts 115°
2026-05-05 23:36 45.63891 17.49615 30964 ft 518 kts 115°
2026-05-05 23:36 45.60939 17.59000 30968 ft 518 kts 115°
2026-05-05 23:37 45.57979 17.68376 30959 ft 518 kts 115°
2026-05-05 23:37 45.55012 17.77734 30965 ft 517 kts 115°
2026-05-05 23:38 45.52040 17.87073 30966 ft 517 kts 115°
2026-05-05 23:38 45.49062 17.96396 30964 ft 516 kts 115°
2026-05-05 23:39 45.46079 18.05708 30971 ft 516 kts 115°
2026-05-05 23:39 45.42956 18.14921 30968 ft 516 kts 118°
2026-05-05 23:40 45.39596 18.23953 30969 ft 516 kts 119°
2026-05-05 23:40 45.36207 18.32958 30964 ft 516 kts 119°
2026-05-05 23:41 45.32855 18.41910 30974 ft 516 kts 119°
2026-05-05 23:41 45.29487 18.50921 30973 ft 516 kts 119°
2026-05-05 23:42 45.26118 18.59919 30972 ft 516 kts 119°
2026-05-05 23:42 45.22740 18.68903 30975 ft 516 kts 119°
2026-05-05 23:43 45.19357 18.77872 30975 ft 516 kts 119°
2026-05-05 23:43 45.15963 18.86835 30978 ft 516 kts 119°
2026-05-05 23:44 45.12583 18.95735 30984 ft 516 kts 119°
2026-05-05 23:44 45.09174 19.04683 30983 ft 516 kts 119°
2026-05-05 23:45 45.05758 19.13618 30985 ft 516 kts 119°
2026-05-05 23:45 45.02337 19.22540 30988 ft 516 kts 119°
2026-05-05 23:46 44.98911 19.31443 30990 ft 515 kts 119°
2026-05-05 23:46 44.95499 19.40283 30992 ft 515 kts 119°
2026-05-05 23:47 44.92065 19.49154 30984 ft 515 kts 119°
2026-05-05 23:47 44.88619 19.58026 30988 ft 515 kts 119°
2026-05-05 23:48 44.85168 19.66881 30982 ft 515 kts 119°
2026-05-05 23:48 44.81714 19.75718 30988 ft 514 kts 119°
2026-05-05 23:49 44.78254 19.84541 30991 ft 515 kts 119°
2026-05-05 23:49 44.74807 19.93303 30992 ft 515 kts 119°
2026-05-05 23:50 44.71336 20.02099 30997 ft 514 kts 119°
2026-05-05 23:50 44.67862 20.10875 30994 ft 514 kts 119°
2026-05-05 23:51 44.64375 20.19656 30995 ft 513 kts 119°
2026-05-05 23:51 44.60890 20.28404 30996 ft 512 kts 119°
2026-05-05 23:52 44.57411 20.37111 30998 ft 511 kts 119°
2026-05-05 23:52 44.53932 20.45790 31001 ft 510 kts 119°
2026-05-05 23:53 44.50444 20.54466 30997 ft 510 kts 120°
2026-05-05 23:53 44.46958 20.63111 31001 ft 510 kts 120°
2026-05-05 23:54 44.43485 20.71697 31003 ft 510 kts 120°
2026-05-05 23:54 44.39988 20.80314 31005 ft 509 kts 120°
2026-05-05 23:55 44.36482 20.88928 31010 ft 509 kts 120°
2026-05-05 23:55 44.32978 20.97513 31009 ft 508 kts 120°
2026-05-05 23:56 44.29467 21.06088 31008 ft 508 kts 120°
2026-05-05 23:56 44.25960 21.14628 31007 ft 507 kts 120°
2026-05-05 23:57 44.22453 21.23144 31011 ft 506 kts 120°
2026-05-05 23:57 44.18938 21.31656 31020 ft 507 kts 120°
2026-05-05 23:58 44.15317 21.40069 31014 ft 507 kts 122°
2026-05-05 23:58 44.11534 21.48337 31015 ft 506 kts 123°
2026-05-05 23:59 44.07747 21.56600 31020 ft 506 kts 122°
2026-05-05 23:59 44.03979 21.64882 31020 ft 507 kts 122°
2026-05-06 00:00 44.00210 21.73177 31028 ft 508 kts 122°
2026-05-06 00:00 43.96454 21.81423 31025 ft 509 kts 122°
2026-05-06 00:01 43.92659 21.89723 31027 ft 509 kts 122°
2026-05-06 00:01 43.88854 21.98019 31020 ft 509 kts 122°
2026-05-06 00:02 43.85046 22.06300 31025 ft 509 kts 122°
2026-05-06 00:02 43.81231 22.14571 31023 ft 510 kts 122°
2026-05-06 00:03 43.77407 22.22841 31027 ft 511 kts 122°
2026-05-06 00:03 43.73592 22.31071 31020 ft 511 kts 122°
2026-05-06 00:04 43.70016 22.39554 31022 ft 510 kts 112°
2026-05-06 00:04 43.67944 22.48884 31020 ft 507 kts 98°
2026-05-06 00:05 43.66795 22.63368 31009 ft 505 kts 94°
2026-05-06 00:06 43.66073 22.73017 30996 ft 505 kts 94°
2026-05-06 00:06 43.65303 22.82662 30997 ft 506 kts 94°
2026-05-06 00:07 43.64503 22.92313 30999 ft 506 kts 94°
2026-05-06 00:07 43.63691 23.01985 30986 ft 506 kts 94°
2026-05-06 00:08 43.62879 23.11570 30975 ft 506 kts 94°
2026-05-06 00:08 43.62054 23.21232 30991 ft 507 kts 94°
2026-05-06 00:09 43.61221 23.30895 30977 ft 507 kts 94°
2026-05-06 00:09 43.60381 23.40543 30979 ft 507 kts 94°
2026-05-06 00:10 43.59532 23.50199 30977 ft 507 kts 94°
2026-05-06 00:10 43.58674 23.59850 30981 ft 507 kts 94°
2026-05-06 00:11 43.57809 23.69499 30981 ft 507 kts 94°
2026-05-06 00:11 43.56936 23.79148 30981 ft 507 kts 94°
2026-05-06 00:12 43.56054 23.88787 30981 ft 507 kts 94°
2026-05-06 00:12 43.55166 23.98421 30980 ft 507 kts 95°
2026-05-06 00:13 43.54269 24.08051 30986 ft 507 kts 95°
2026-05-06 00:13 43.53362 24.17691 30988 ft 506 kts 95°
2026-05-06 00:14 43.52456 24.27244 30987 ft 506 kts 95°
2026-05-06 00:14 43.51535 24.36860 30985 ft 506 kts 95°
2026-05-06 00:15 43.50608 24.46453 30990 ft 505 kts 95°
2026-05-06 00:15 43.49673 24.56043 30991 ft 505 kts 95°
2026-05-06 00:16 43.48733 24.65608 30985 ft 504 kts 95°
2026-05-06 00:16 43.47784 24.75176 30989 ft 504 kts 95°
2026-05-06 00:17 43.46827 24.84737 30990 ft 504 kts 95°
2026-05-06 00:17 43.45864 24.94277 30994 ft 503 kts 95°
2026-05-06 00:18 43.44898 25.03763 30996 ft 503 kts 95°
2026-05-06 00:18 43.43919 25.13301 30995 ft 503 kts 95°
2026-05-06 00:19 43.42932 25.22831 31001 ft 503 kts 95°
2026-05-06 00:19 43.42106 25.30753 31001 ft 503 kts 95°
2026-05-06 00:20 43.41104 25.40288 31005 ft 503 kts 95°
2026-05-06 00:20 43.40097 25.49793 31009 ft 502 kts 95°
2026-05-06 00:21 43.39081 25.59302 31012 ft 502 kts 95°
2026-05-06 00:21 43.38059 25.68789 31022 ft 501 kts 95°
2026-05-06 00:22 43.37029 25.78274 31019 ft 501 kts 95°
2026-05-06 00:22 43.35995 25.87729 31019 ft 500 kts 95°
2026-05-06 00:23 43.34958 25.97125 31021 ft 500 kts 95°
2026-05-06 00:23 43.33908 26.06578 31032 ft 500 kts 95°
2026-05-06 00:24 43.32851 26.16018 31042 ft 500 kts 95°
2026-05-06 00:24 43.31787 26.25445 31043 ft 499 kts 95°
2026-05-06 00:25 43.30716 26.34857 31054 ft 498 kts 95°
2026-05-06 00:25 43.29639 26.44259 31062 ft 498 kts 96°
2026-05-06 00:26 43.28557 26.53634 31058 ft 497 kts 96°
2026-05-06 00:26 43.27465 26.63019 31058 ft 497 kts 96°
2026-05-06 00:27 43.26375 26.72325 31068 ft 497 kts 96°
2026-05-06 00:27 43.25271 26.81683 31056 ft 496 kts 96°
2026-05-06 00:28 43.24160 26.91025 31044 ft 496 kts 96°
2026-05-06 00:28 43.23043 27.00356 31064 ft 496 kts 97°
2026-05-06 00:29 43.21918 27.09690 31070 ft 496 kts 97°
2026-05-06 00:29 43.20794 27.18941 31059 ft 495 kts 97°
2026-05-06 00:30 43.19656 27.28248 31056 ft 495 kts 97°